Погода Первомайское

Погода Первомайское : погода сейчас, прогноз погоды и архив. Всё, что Вы хотите узнать о погоде Первомайское!

Хотите узнать прогноз погоды Первомайское? Тогда Вам сюда: Погода Первомайское

Поиск расширенной информации на нашем сайте:

Другие новости

Новости СМИ2

Главная страница сайта

Новости сайта

03.07.2017

Напоминаем, что на нашем специализированном сайте Метеоцентр.Азия вы можете получить высокодетализированные автоматические прогнозы погоды по пунктам России, СНГ и мира в авиационном формате (включающие направление и скорость ветра, видимость, явления погоды, количество и форму облачности, нижнюю и верхнюю границу облачности).

Рекомендуем: Грунтовка для дерева pinotex base пинотекс бейс.

Погода Первомайское - сегодня

Время (UTC), дата Ветер
(°,м/с) 
Видим.   Явления Облачность Т
(°С)
Тd
(°С)
f(%) Тe
(°С)
Pmin
(гПа)
dP
(гПа)
Po
(мм)
O2
(г/м3)
Тmin Tmax R s Состояние
почвы
18 15.10.17 120 (ЮВ) 10 км    10/0 средняя 
[Ac As]
+3.2 -3.3 62 +3  1012.2  -1.3  748  298           
21 15.10.17 150 (ЮВ) 10 км    10/0 средняя, верхняя 
[Ac trans|Cs]
+3.6 -2.7 63 +3  1010.9  -1.3  747  298           
00 16.10.17 150 (ЮВ) 10 км    10/0 средняя 
[Ac As]
+4.7 -1.4 65 +4  1010.5  -0.3  747  296  +2.6         
03 16.10.17 170 (Ю) 10 км  слаб. ливневой дождь  10/10 300 м кучево-дожд. 
[Cb cap]
+5.8 +1.4 73 +7  1011.3  0.8  748  295           
06 16.10.17 190 (Ю) 10 км  {ливн. осадки}  10/10 600 м кучево-дожд. 
[Cb cap]
+7.5 +4.4 81 +7  1011.6  0.4  748  293           
09 16.10.17 240 (ЮЗ) 10 км  слаб. ливневой дождь  10/10 300 м кучево-дожд. 
[Cb cap]
+7.1 +5.3 88 +8  1012.6  749  293           
12 16.10.17 280 (З) 10 км  в посл. час ливневой дождь  10/10 600 м кучево-дожд. 
[Cb cap]
+4.6 +2.5 86 +5  1015.4  2.6  751  297    +8.2  0.6     
15 16.10.17 300 (СЗ) 10 км  {ливн. осадки}  10/10 600 м кучево-дожд. 
[Cb cap]
+2.5 +0.9 89 +2  1018.9  3.3  753  301           
18 16.10.17 тихо ()   10 км  {ливн. осадки}  1/0 средняя 
[Ac trans]
-0.5 -1.6 92 -1  1021.3  2.3  755  305           
21 16.10.17 тихо ()   10 км    10/0 средняя 
[Ac As]
+0.2 -0.6 94 1023.2  1.9  756  305           
00 17.10.17 350 (С) 10 км    10/8 600 м средняя 
[Sc|Ac As]
+0.6 -1.5 86 +1  1025.3  758  305  -0.5    0.0     
03 17.10.17 300 (СЗ) 10 км    10/0 средняя 
[Ac As]
+0.3 -2 85 +1  1027.6  2.4  760  306           
06 17.10.17 тихо ()   10 км  в посл. час ливневой снег  9/6 600 м кучево-дожд., средняя 
[Cb cap|Ac trans]
+0.7 -2.9 77 +1  1028.3  0.6  760  306           
09 17.10.17 310 (СЗ) 10 км  {ливн. осадки}  10/4 600 м кучево-дожд., средняя 
[Cb cap|Ac As]
+0.7 -3.2 75 +1  1028.3  760  306           
12 17.10.17 тихо ()   10 км  {ливн. осадки}  9/4 600 м кучево-дожд., средняя 
[Cb cap|Ac trans]
-0.4 -4.3 75 -0  1028.4  0.1  760  307    +0.8  0.0     
15 17.10.17 100 (В) 10 км    10/0 средняя 
[Ac As]
+0.1 -4.3 72 +1  1028.2  -0.2  760  307           
18 17.10.17 080 (В) 10 км    9/0 средняя 
[Ac trans]
-0.2 -4.2 74 -1  1026.5  -1.7  759  306           
21 17.10.17 080 (В) 10 км    10/0 средняя 
[Ac As]
+0.1 -3.3 78 -1  1024.8  -1.6  758  306           
00 18.10.17 040 (СВ) 10 км    10/0 средняя 
[Ac As]
+0 -2.8 81 -1  1023.7  -1.2  757  305  -0.9         
03 18.10.17 050 (СВ) 10 км    10/10 1000 м 
[Sc]
+0.3 -2.4 82 1022.7  -1  756  305           
06 18.10.17 050 (СВ) 10 км    10/10 1000 м 
[Sc]
+1.4 -1 84 +1  1020.7  -1.8  755  303           
09 18.10.17 090 (В) 10 км  в посл. час ливневой снег  10/10 600 м кучево-дожд. 
[Cb cap]
+2.5 -0.9 78 +1  1019.5  -1.1  754  301           
12 18.10.17 030 (СВ) 10 км  {ливн. осадки}  10/10 1000 м 
[Sc]
+1.7 -1.1 82 +1  1019  -0.6  753  302    +2.5  0.0     
15 18.10.17 060 (СВ) 10 км    10/10 600 м 
[Sc]
+1.4 -0.9 85 +1  1018.2  -0.8  753  302           
18 18.10.17 070 (В) 10 км    10/10 600 м 
[Sc]
+1.2 -0.8 86 1017.1  -1.1  752  302           
Время (UTC), дата Ветер
(°,м/с) 
Видим.   Явления Облачность Т
(°С)
Тd
(°С)
f(%) Тe
(°С)
Pmin
(гПа)
dP
(гПа)
Po
(мм)
O2
(г/м3)
Тmin Tmax R s Состояние
почвы

Для получения пояснительной информации подведите курсор к названию столбца.

ПОГОДА Первомайское - архив

Всё, что Вы хотите узнать о погоде Первомайское - удобно и подробно!

Выберите нужную дату (начиная с 1 января 2015* года) и нажмите кнопку "Найти".
Будут отображены архивные сводки погоды по пункту Первомайское, начиная с указанной даты.


Отображать данные в формате CSV (для использования в таблицах Excel)


Внимание! Наш архив погоды предназначен исключительно для личного некоммерческого использования в познавательных целях. Если Вам необходимы официальные справки о состоянии погоды (для производственных, юридических, коммерческих и т.п. целей), обращайтесь в органы Росгидромета.

*Примечание: данная дата относится к архиву по метеостанциям СССР (Россия, СНГ, Балтия).
Архив по метеостанциям Зарубежной Европы и Азии (кроме Китая) хранится 10 дней, по другим регионам земного шара (Китай, Африка, Америка, Австралия, Океания) - 1 день.

Первомайское - район местоположения метеостанции


Название, широта, долгота, высота метеостанции:
Первомайское 57.1°ш. 86.2°д. 114 м над ур. моря [Российская Федерация]

Дополнительная информация

В oтличие oт бoльшинства пoгoдных сайтoв мы публикуем пoдрoбную метеoинфoрмацию в детальнoм прoфессиoнальнoм фoрмате.

Характеристики температуры и влажнoсти вoздуха измеряются на высoте 2 м в тени вдали oт зданий и деревьев.
Скoрoсть ветра измеряется на высoте 10 м (на урoвне рoста челoвека скoрoсть ветра ниже в 1.5-2 раза). Если метеoстанция нахoдится в гoрoде или в лесу, тo скoрoсть ветра занижена на 2-4 м/с пo сравнению с oткрытым местoм. Скoрoсть ветра над акватoриями крупных рек и oзёр, а также на вершинах хoлмoв на 2-5 м/с выше, чем в oбычных услoвиях.
Атмoсфернoе давление в разных тoчках местнoсти мoжет значительнo oтличаться oт давления на метеoстанции, в зависимoсти oт услoвий рельефа (при пoдъёме на 10 м давление пoнижается примернo на 1 мм рт.ст.).